Weather reports worldwide

Advertisment
Capo Bellavista, Italy (16550): temperature & dewpoint: 21.02.2020 14:00:00 - 27.02.2020 14:00:00 (CET)Capo Bellavista, Italy (16550): wind speed: 21.02.2020 14:00:00 - 27.02.2020 14:00:00 (CET)Capo Bellavista, Italy (16550): wind direction: 21.02.2020 14:00:00 - 27.02.2020 14:00:00 (CET)Capo Bellavista, Italy (16550): reduced air pressure: 21.02.2020 14:00:00 - 27.02.2020 14:00:00 (CET)Capo Bellavista, Italy (16550): visibility: 21.02.2020 14:00:00 - 27.02.2020 14:00:00 (CET)Capo Bellavista, Italy (16550): sunshine duration: 21.02.2020 14:00:00 - 27.02.2020 14:00:00 (CET)
Date & Time tt [°C] td [°C] ff [km/h] ff [kn] dd ppp [hPa] vv [km] sd [min]
27.02.2020 14:00:00 15,8 4,5 4 2 S 1025,9 20 0
27.02.2020 13:00:00 17,0 4,4 0 0 N 1016,4 30 12
27.02.2020 12:00:00 18,2 2,5 8 4 S 1016,5 30 54
27.02.2020 11:00:00 16,6 1,1 8 4 SSE 1016,0 30 60
27.02.2020 10:00:00 14,0 -0,4 9 5 SE 1015,9 30 60
27.02.2020 09:00:00 12,6 -3,6 9 5 NE 1015,2 30 60
27.02.2020 08:00:00 10,0 -6,8 18 10 NNW 1015,1 30 0
27.02.2020 07:00:00 9,8 -8,3 29 16 NW 1014,5 30 -
27.02.2020 06:00:00 10,6 -9,7 9 5 W 1014,1 30 -
27.02.2020 05:00:00 10,8 -11,3 11 6 N 1013,0 30 -
27.02.2020 04:00:00 11,0 -11,1 18 10 NW 1013,0 30 -
27.02.2020 03:00:00 12,0 -9,1 11 6 NNE 1012,0 30 -
27.02.2020 02:00:00 12,0 -8,5 15 8 N 1011,8 30 -
27.02.2020 01:00:00 12,0 -10,3 34 18 N 1011,6 30 -
27.02.2020 00:00:00 12,0 -7,4 13 7 NNW 1011,3 30 -
26.02.2020 23:00:00 12,2 -2,8 34 18 NNW 1010,9 30 -
26.02.2020 22:00:00 13,6 0,6 41 22 NNW 1010,8 30 -
26.02.2020 21:00:00 13,2 -3,1 55 30 NW 1009,8 30 -
26.02.2020 20:00:00 13,6 -2,0 37 20 NW 1009,1 30 -
26.02.2020 19:00:00 13,6 0,6 34 18 NW 1008,8 30 -
26.02.2020 18:00:00 13,8 2,7 41 22 NW 1008,7 30 36
26.02.2020 17:00:00 14,4 2,6 55 30 NW 1009,1 30 60
26.02.2020 16:00:00 16,0 4,1 46 25 NNW 1008,8 30 30
26.02.2020 15:00:00 14,8 2,0 44 24 NNW 1009,9 30 36
26.02.2020 14:00:00 16,0 1,7 37 20 NNW 1009,8 30 24
26.02.2020 13:00:00 16,6 1,9 44 24 NW 1009,8 20 18
26.02.2020 12:00:00 16,0 2,4 34 18 NW 1009,7 30 60
26.02.2020 11:00:00 16,4 0,9 37 20 WNW 1009,6 30 30
26.02.2020 10:00:00 15,0 2,9 18 10 NW 1009,9 30 0
26.02.2020 09:00:00 15,0 2,6 15 8 NNW 1009,6 30 0
26.02.2020 08:00:00 14,8 2,3 5 3 SSW 1009,0 30 6
26.02.2020 07:00:00 14,4 2,8 34 18 NW 1008,8 25 0
26.02.2020 06:00:00 14,6 3,1 46 25 NW 1008,8 20 -
26.02.2020 05:00:00 14,2 5,9 41 22 NW 1009,0 20 -
26.02.2020 04:00:00 14,8 5,0 41 22 NNW 1008,9 20 -
26.02.2020 03:00:00 15,2 -1,9 24 13 NW 1009,7 20 -
26.02.2020 02:00:00 15,4 -6,8 21 11 NW 1009,7 20 -
26.02.2020 01:00:00 15,0 -0,9 18 10 NNW 1009,8 20 -
26.02.2020 00:00:00 15,4 0,4 9 5 SSW 1009,9 20 -
25.02.2020 23:00:00 16,4 9,9 16 9 SW 1010,5 20 -
25.02.2020 22:00:00 16,2 1,7 15 8 WNW 1010,5 20 -
25.02.2020 21:00:00 15,4 11,7 9 5 NE 1010,8 20 -
25.02.2020 20:00:00 17,6 9,8 9 5 ENE 1010,5 20 -
25.02.2020 19:00:00 17,8 0,7 5 3 N 1009,9 20 -
25.02.2020 18:00:00 18,2 5,7 11 6 WNW 1010,1 30 48
25.02.2020 17:00:00 16,8 7,0 9 5 N 1010,6 30 60
25.02.2020 16:00:00 17,4 13,6 15 8 SE 1011,5 20 60
25.02.2020 15:00:00 17,4 9,9 16 9 SE 1012,2 30 60
25.02.2020 14:00:00 17,8 8,7 11 6 E 1013,4 30 60
25.02.2020 13:00:00 19,0 10,2 13 7 W 1014,5 20 60
25.02.2020 12:00:00 20,2 4,6 15 8 E 1014,6 30 60
25.02.2020 11:00:00 20,0 6,3 9 5 ESE 1014,8 30 60
25.02.2020 10:00:00 16,2 4,9 5 3 ENE 1015,4 30 60
25.02.2020 09:00:00 15,0 -2,4 15 8 WNW 1014,8 30 30
25.02.2020 08:00:00 13,8 -1,8 18 10 WNW 1015,9 30 0
25.02.2020 07:00:00 15,0 5,0 11 6 SSW 1015,9 20 -
25.02.2020 06:00:00 14,2 1,5 5 3 SW 1027,2 20 -
25.02.2020 05:00:00 14,6 3,7 8 4 ENE 1018,4 20 -
25.02.2020 04:00:00 13,8 13,0 11 6 ENE 1018,5 20 -
25.02.2020 03:00:00 15,0 7,5 18 10 ENE 1018,4 20 -
25.02.2020 02:00:00 15,0 -4,3 13 7 N 1018,6 20 -
25.02.2020 01:00:00 15,8 -0,8 8 4 ENE 1018,9 20 -
25.02.2020 00:00:00 16,0 -1,5 15 8 NNW 1018,9 20 -
24.02.2020 23:00:00 16,0 2,1 11 6 WNW 1018,9 20 -
24.02.2020 22:00:00 15,8 6,5 11 6 NNW 1019,6 20 -
24.02.2020 21:00:00 17,0 9,7 8 4 SSW 1019,7 20 -
24.02.2020 20:00:00 16,0 6,2 16 9 W 1019,7 25 -
24.02.2020 19:00:00 16,2 12,2 15 8 W 1019,8 30 -
24.02.2020 18:00:00 17,4 8,3 8 4 WNW 1019,7 30 48
24.02.2020 17:00:00 17,4 3,7 8 4 WSW 1019,9 30 60
24.02.2020 16:00:00 19,0 11,8 15 8 SSW 1019,8 30 60
24.02.2020 15:00:00 18,0 11,1 11 6 SSE 1020,9 30 60
24.02.2020 14:00:00 18,0 12,5 15 8 SE 1021,4 30 60
24.02.2020 13:00:00 19,0 14,3 18 10 SE 1022,3 30 60
24.02.2020 12:00:00 20,0 13,7 11 6 SE 1022,5 30 60
24.02.2020 11:00:00 19,0 4,0 8 4 SSE 1022,7 30 60
24.02.2020 10:00:00 16,2 4,6 8 4 NNE 1022,8 30 60
24.02.2020 09:00:00 14,8 3,0 11 6 SSW 1022,8 30 60
24.02.2020 08:00:00 11,8 5,2 15 8 W 1022,9 30 60
24.02.2020 07:00:00 11,8 7,5 21 11 WSW 1023,5 30 0
24.02.2020 06:00:00 10,2 4,6 5 3 NW 1024,8 20 -
24.02.2020 05:00:00 10,6 4,3 8 4 W 1025,2 20 -
24.02.2020 04:00:00 10,8 4,7 5 3 WNW 1025,6 20 -
24.02.2020 03:00:00 11,8 6,5 15 8 WNW 1025,9 20 -
24.02.2020 02:00:00 11,2 5,5 5 3 NW 1026,4 20 -
24.02.2020 01:00:00 11,4 5,5 9 5 W 1026,6 20 -
24.02.2020 00:00:00 11,6 6,1 11 6 WNW 1026,8 20 -
23.02.2020 23:00:00 11,8 6,9 15 8 WNW 1026,9 20 -
23.02.2020 22:00:00 11,8 9,2 15 8 WNW 1027,5 20 -
23.02.2020 21:00:00 13,0 13,0 15 8 NNE 1027,9 20 -
23.02.2020 20:00:00 13,8 13,8 21 11 NE 1027,9 20 -
23.02.2020 19:00:00 14,2 12,4 11 6 NNW 1027,9 20 -
23.02.2020 18:00:00 15,0 10,0 5 3 WNW 1027,8 30 30
23.02.2020 17:00:00 16,0 10,7 4 2 SW 1028,0 30 60
23.02.2020 16:00:00 18,4 12,6 11 6 S 1027,8 30 60
23.02.2020 15:00:00 18,6 13,0 9 5 S 1028,1 30 60
23.02.2020 14:00:00 18,8 12,8 9 5 S 1028,8 30 60
23.02.2020 13:00:00 17,8 9,4 9 5 SE 1030,5 30 60
23.02.2020 12:00:00 17,6 10,7 11 6 SE 1031,0 30 60
23.02.2020 11:00:00 16,8 12,4 11 6 E 1031,0 30 60
23.02.2020 10:00:00 15,6 11,2 15 8 E 1030,9 30 60
23.02.2020 09:00:00 14,8 5,7 8 4 E 1030,6 30 60
23.02.2020 08:00:00 11,8 4,7 4 2 SSW 1030,4 30 24
23.02.2020 07:00:00 11,2 5,8 16 9 WNW 1031,0 20 0
23.02.2020 06:00:00 11,2 6,2 13 7 NNW 1030,9 20 -
23.02.2020 05:00:00 10,4 6,6 13 7 WSW 1031,4 20 -
23.02.2020 04:00:00 10,8 8,6 11 6 W 1031,9 20 -
23.02.2020 03:00:00 11,2 9,0 11 6 NNW 1032,4 20 -
23.02.2020 02:00:00 10,6 8,4 15 8 NW 1032,4 20 -
23.02.2020 01:00:00 10,4 10,0 16 9 NW 1032,6 20 -
23.02.2020 00:00:00 16,6 15,7 8 4 WNW 1032,3 20 -
22.02.2020 23:00:00 16,2 15,9 8 4 NW 1031,1 20 -
22.02.2020 22:00:00 11,2 11,2 11 6 NW 1032,2 20 -
22.02.2020 21:00:00 12,6 12,6 15 8 W 1031,2 20 -
22.02.2020 20:00:00 12,6 12,6 13 7 WSW 1031,3 20 -
22.02.2020 19:00:00 13,8 12,5 9 5 WSW 1031,1 20 -
22.02.2020 18:00:00 14,2 11,8 9 5 SE 1030,5 25 48
22.02.2020 17:00:00 16,2 12,9 9 5 SE 1030,3 30 60
22.02.2020 16:00:00 16,0 12,4 16 9 E 1030,3 30 60
22.02.2020 15:00:00 15,4 11,3 15 8 E 1030,3 30 60
22.02.2020 14:00:00 16,4 11,4 18 10 E 1030,3 30 60
22.02.2020 13:00:00 17,2 10,0 16 9 E 1030,3 30 60
22.02.2020 12:00:00 17,2 9,5 15 8 ESE 1030,1 30 60
22.02.2020 11:00:00 16,6 9,2 13 7 E 1030,1 30 60
22.02.2020 10:00:00 14,6 7,7 8 4 NNE 1028,9 30 60
22.02.2020 09:00:00 10,8 5,7 13 7 NW 1028,8 30 60
22.02.2020 08:00:00 10,0 6,5 21 11 NW 1028,4 30 42
22.02.2020 07:00:00 10,0 6,5 15 8 NW 1028,1 30 -
22.02.2020 06:00:00 9,8 5,9 16 9 NW 1027,4 30 -
22.02.2020 05:00:00 10,0 6,5 18 10 NW 1026,4 30 -
22.02.2020 04:00:00 10,0 6,1 16 9 NW 1026,0 30 -
22.02.2020 03:00:00 10,2 5,0 21 11 NW 1026,0 30 -
22.02.2020 02:00:00 10,4 7,4 22 12 NW 1025,9 30 -
22.02.2020 01:00:00 10,4 6,6 18 10 NW 1025,5 30 -
22.02.2020 00:00:00 10,8 7,4 18 10 NW 1025,3 30 -
21.02.2020 23:00:00 11,8 10,4 4 2 NNW 1025,3 30 -
21.02.2020 22:00:00 12,0 12,0 9 5 ENE 1025,2 30 -
21.02.2020 21:00:00 12,2 11,9 8 4 ENE 1024,6 30 -
21.02.2020 20:00:00 12,2 10,5 11 6 ENE 1024,2 30 -
21.02.2020 19:00:00 13,4 8,3 4 2 WSW 1023,4 30 -
21.02.2020 18:00:00 15,0 10,1 13 7 SSW 1022,8 30 48
21.02.2020 17:00:00 17,0 10,9 21 11 SSW 1022,7 30 60
21.02.2020 16:00:00 18,0 10,5 15 8 SSW 1022,6 30 60
21.02.2020 15:00:00 17,2 11,9 9 5 SE 1023,0 30 60
21.02.2020 14:00:00 18,8 11,5 15 8 SE 1023,1 30 60

tt = temperature
td = dewpoint
ff = wind speed
dd = wind direction
ppp = reduced air pressure
vv = visibility
sd = sunshine duration

Next stations